GSAT-11

Last updated on Tue Sep 16 2025 00:02:49 GMT+0000 (Coordinated Universal Time)

1 43824U 18100B 25258.52789569 -.00000094 00000+0 00000+0 0 9996 2 43824 0.0687 273.4209 0006242 204.5091 140.8380 1.00271462 24728
UTC large
Height (km)
Speed (km/s)
/
Latitude / Longitude
Inclination (degrees)
Orbital Period (minutes)
Azimuth
Elevation
Range (km)
Doppler Factor

Next 0 passes for location: London (51.5072 / 0.1276)

Sorry there are no passes over London.